Location: East Guldeford
(50.9500°N, 0.7500°E)
Time: 09:51:04
(UTC+00:00)

Spot 4 - Pass Details

Date: 12 May 2021
Orbit: 703 x 724 km, 98.3° (Epoch: 16 June)

Event Time Altitude Azimuth Distance (km) Brightness Sun altitude
Exits shadow 22:42:00 38° 151° (SSE) 1,105 4.3 -18.9°
Maximum altitude 22:43:53 77° 73° (ENE) 748 3.9 -19.0°
Drops below altitude 10° 22:48:46 10° 348° (NNW) 2,223 7.6 -19.2°
Sets 22:51:03 0° 347° (NNW) 3,145 8.8 -19.3°
